TimeCST,TemperatureF,Dew PointF,Humidity,Sea Level PressureIn,VisibilityMPH,Wind Direction,Wind SpeedMPH,Gust SpeedMPH,PrecipitationIn,Events,Conditions,WindDirDegrees,DateUTC
12:00 AM,71,61,62,29.83,12,East,17.3,,,,Scattered Clouds,100,2013-07-23 06:00:00
12:00 AM,71.6,60.8,69,30.02,-9999.0,East,17.3,-,N/A,,Clear,100,2013-07-23 06:00:00
1:00 AM,69.8,60.8,73,30.02,-9999.0,ENE,9.2,-,N/A,,Clear,60,2013-07-23 07:00:00
2:00 AM,68.0,60.8,78,30.00,-9999.0,NNE,8.1,-,N/A,,Clear,30,2013-07-23 08:00:00
3:00 AM,68,61,73,29.85,12,North,4.6,,,,Scattered Clouds,350,2013-07-23 09:00:00
3:00 AM,68.0,60.8,78,29.99,-9999.0,North,4.6,-,N/A,,Clear,350,2013-07-23 09:00:00
4:00 AM,69.8,62.6,78,29.98,-9999.0,ENE,9.2,-,N/A,,Clear,60,2013-07-23 10:00:00
5:00 AM,66.2,60.8,83,29.99,6.2,North,4.6,-,N/A,,Scattered Clouds,10,2013-07-23 11:00:00
6:00 AM,69,62,71,29.86,12,NE,11.5,,,,Scattered Clouds,50,2013-07-23 12:00:00
6:00 AM,69.8,62.6,78,30.01,6.2,NE,11.5,-,N/A,,Mostly Cloudy,50,2013-07-23 12:00:00
7:00 AM,71.6,62.6,73,30.03,6.2,NE,4.6,-,N/A,,Mostly Cloudy,50,2013-07-23 13:00:00
8:00 AM,73.4,62.6,69,30.03,6.2,ESE,10.4,-,N/A,,Mostly Cloudy,110,2013-07-23 14:00:00
9:00 AM,76,64,59,29.86,12,ESE,10.4,,,,Scattered Clouds,110,2013-07-23 15:00:00
9:00 AM,77.0,64.4,65,30.03,6.2,ESE,10.4,-,N/A,,Mostly Cloudy,110,2013-07-23 15:00:00
10:00 AM,80.6,64.4,58,30.01,6.2,ESE,10.4,-,N/A,,Mostly Cloudy,110,2013-07-23 16:00:00
11:00 AM,84.2,62.6,48,30.00,6.2,ESE,5.8,-,N/A,,Mostly Cloudy,120,2013-07-23 17:00:00
12:00 PM,80.6,60.8,51,30.00,6.2,WSW,6.9,-,N/A,,Mostly Cloudy,240,2013-07-23 18:00:00
1:00 PM,75.2,69.8,83,29.99,6.2,SW,9.2,-,N/A,,Mostly Cloudy,230,2013-07-23 19:00:00
2:00 PM,77.0,69.8,78,29.97,6.2,WSW,8.1,-,N/A,,Mostly Cloudy,240,2013-07-23 20:00:00
3:00 PM,75,69,76,29.79,12,WSW,8.1,,,,Partly Cloudy,250,2013-07-23 21:00:00
3:00 PM,75.2,69.8,83,29.95,6.2,WSW,8.1,-,N/A,,Mostly Cloudy,250,2013-07-23 21:00:00
4:00 PM,75.2,68.0,78,29.96,6.2,West,8.1,-,N/A,,Mostly Cloudy,260,2013-07-23 22:00:00
5:00 PM,73.4,68.0,83,29.95,6.2,WSW,8.1,-,N/A,,Mostly Cloudy,250,2013-07-23 23:00:00
6:00 PM,71,69,92,29.81,5,SW,4.6,,,Fog,Light Fog,220,2013-07-24 00:00:00
6:00 PM,71.6,69.8,94,29.96,5.0,SW,4.6,-,N/A,Fog,Fog,220,2013-07-24 00:00:00
7:00 PM,69.8,69.8,100,29.96,6.2,SSE,3.5,-,N/A,,Mostly Cloudy,150,2013-07-24 01:00:00
8:00 PM,71.6,64.4,78,29.95,6.2,East,3.5,-,N/A,,Mostly Cloudy,100,2013-07-24 02:00:00
9:00 PM,74,62,58,29.77,12,ESE,11.5,,,,Partly Cloudy,110,2013-07-24 03:00:00
9:00 PM,73.4,62.6,69,29.95,-9999.0,ESE,11.5,-,N/A,,Clear,110,2013-07-24 03:00:00
10:00 PM,73.4,62.6,69,29.97,-9999.0,East,12.7,-,N/A,,Clear,100,2013-07-24 04:00:00
11:00 PM,73.4,62.6,69,29.98,-9999.0,East,10.4,-,N/A,,Clear,100,2013-07-24 05:00:00